Snowfall_Accumulation
0.0 0.0 0.0 0.0 0.0 0.0 0.0 0.0 0.0 0.0 0.0 0.0 0.0 0.0 0.0 0.0 0.0 0.0 0.0 0.0 0.0 0.0 0.0 0.0 0.0 0.0 0.0 0.0 0.0 0.0 0.0 0.0 0.0 0.0 0.0 0.0 0.0 0.0 0.0 0.0 0.0 0.0 0.0 0.0
0.1 0.0 0.0 0.0 0.0 0.0 0.0 0.0 0.0 0.0 0.0 0.0 0.0 0.0 0.0 0.0 0.0 0.0 0.0 0.0 0.0 0.0 0.0 0.0 0.0 0.0 0.0 0.0 0.0 0.0 0.0 0.0 0.0 0.0 0.0 0.0 0.0 0.0 0.0 0.0 0.0 0.0 0.0 0.0
0.1 0.0 0.0 0.0 0.0 0.0 0.0 0.0 0.0 0.0 0.0 0.0 0.0 0.0 0.0 0.0 0.0 0.0 0.0 0.0 0.0 0.0 0.0 0.0 0.0 0.0 0.0 0.0 0.0 0.0 0.0 0.0 0.0 0.0 0.0 0.0 0.0 0.0 0.0 0.0 0.0 0.0 0.0 0.0
0.0 0.0 0.0 0.0 0.0 0.0 0.0 0.0 0.0 0.0 0.2 0.3 0.0 0.4 0.0 0.0 0.0 0.0 0.0 0.0 0.0 0.0 0.0 0.0 0.0 0.0 0.0 0.0 0.0 0.0 0.0 0.0 0.0 0.0 0.0 0.0 0.0 0.0 0.0 0.0 0.0 0.0 0.0 0.0
0.0 0.0 0.0 0.0 0.0 0.0 0.0 0.0 0.0 0.0 0.1 0.1 0.0 0.2 0.0 0.0 0.0 0.0 0.0 0.0 0.0 0.0 0.0 0.0 0.0 0.0 0.0 0.0 0.0 0.0 0.0 0.0 0.0 0.0 0.0 0.0 0.0 0.0 0.0 0.0 0.0 0.0 0.0 0.0
0.0 0.0 0.0 0.0 0.0 0.0 0.0 0.0 0.0 0.0 0.0 4.3 0.0 0.0 0.0 0.0 0.0 0.0 0.0 0.0 0.0 0.0 0.0 0.0 0.0 0.0 0.0 0.0 0.0 0.0 0.0 0.0 0.0 0.0 0.0 0.0 0.0 0.0 0.0 0.0 0.0 0.0 0.0 0.0
0.0 0.0 0.0 0.0 0.0 0.0 0.0 0.2 10.6 13.9 17.4 4.7 0.0 0.0 0.0 0.0 0.0 0.0 0.0 0.0 0.0 0.0 0.0 0.0 0.0 0.0 0.0 0.0 0.0 0.0 0.0 0.0 0.0 0.0 0.0 0.0 0.0 0.0 0.0 0.0 0.0 0.0 0.0 0.0
3.6 7.2 0.0 0.0 0.0 0.1 0.0 0.2 4.3 4.3 4.5 1.0 0.0 0.2 0.0 0.0 0.0 0.0 0.0 0.0 0.0 0.0 0.0 0.0 0.0 0.0 0.0 0.0 0.0 0.0 0.0 0.0 0.0 0.0 0.0 0.0 0.0 0.0 0.0 0.0 0.0 0.0 0.0 0.0
3.6 1.7 0.0 0.0 0.0 0.0 0.5 2.7 0.0 2.3 1.9 1.6 0.1 0.0 0.0 0.0 0.0 0.0 0.0 0.0 0.0 0.0 0.0 0.0 0.0 0.0 0.0 0.0 0.0 0.0 0.0 0.0 0.0 0.0 0.0 0.0 0.0 0.0 0.0 0.0 0.0 0.0 0.0 0.0
1.9 5.0 0.6 0.0 0.0 0.0 0.0 0.0 2.9 3.0 9.3 2.9 0.7 0.1 0.2 0.0 0.0 0.0 0.0 0.0 0.0 0.0 0.0 0.0 0.0 0.0 0.0 0.0 0.0 0.0 0.0 0.0 0.0 0.0 0.0 0.0 0.0 0.0 0.0 0.0 0.0 0.0 0.0 0.0
0.9 2.3 2.2 0.2 1.1 0.3 0.3 1.1 0.0 0.2 1.2 3.9 4.3 0.6 0.0 0.0 0.0 0.0 0.0 0.0 0.0 0.0 0.0 0.0 0.0 0.0 0.0 0.0 0.0 0.0 0.0 0.0 0.0 0.0 0.0 0.0 0.0 0.0 0.0 0.0 0.0 0.0 0.0 0.0
0.0 0.9 3.7 3.0 0.2 0.0 0.0 0.0 0.1 2.0 3.1 1.2 2.3 2.3 0.0 0.0 0.0 0.0 0.0 0.0 0.0 0.0 0.0 0.0 0.0 0.0 0.0 0.0 0.0 0.0 0.0 0.0 0.0 0.0 0.0 0.0 0.0 0.0 0.0 0.0 0.0 0.0 0.0 0.0
0.0 3.0 7.3 6.2 3.0 0.2 0.5 0.0 0.0 0.1 0.5 2.5 8.4 2.4 0.1 0.0 0.1 0.0 0.1 0.1 0.1 0.0 0.0 0.0 0.0 0.0 0.0 0.0 0.0 0.0 0.0 0.0 0.0 0.0 0.0 0.0 0.0 0.0 0.0 0.0 0.0 0.0 0.0 0.0
nan 2.5 3.2 1.5 0.6 0.2 2.2 0.9 0.1 0.6 7.5 1.2 2.1 2.8 0.8 2.3 1.8 0.4 0.7 0.6 0.5 0.4 0.3 0.1 0.1 0.1 0.1 0.0 0.0 0.0 0.0 0.0 0.0 0.0 0.0 0.0 0.0 0.0 0.0 0.0 0.0 0.0 0.0 0.0
0.0 5.6 3.1 2.0 0.3 0.1 0.5 1.6 2.5 3.4 0.1 4.7 1.5 3.6 1.3 1.3 2.2 2.6 0.7 0.2 0.7 2.4 1.8 1.2 1.4 1.0 0.5 0.3 0.2 0.1 0.0 0.1 0.0 0.0 0.0 0.0 0.0 0.0 0.0 0.0 0.0 0.0 0.0 0.0
0.0 2.6 2.1 4.9 1.9 0.9 2.7 0.7 1.2 2.4 1.8 2.6 2.2 2.9 0.1 0.0 0.1 1.2 1.0 0.5 0.5 0.5 1.8 2.0 1.1 1.1 1.3 1.6 0.3 0.0 0.7 0.0 0.0 0.0 0.0 0.0 0.0 0.0 0.0 0.0 0.0 0.0 0.0 0.0
0.1 1.6 8.0 14.6 2.7 4.3 11.1 1.5 0.9 0.8 0.3 0.3 2.4 0.8 0.1 0.3 0.1 0.2 0.1 0.1 0.4 0.1 0.0 0.2 0.2 1.0 1.1 0.4 0.1 0.2 0.0 0.0 0.0 0.0 0.2 0.1 0.4 0.2 0.1 0.2 0.0 0.1 0.1 0.1
0.2 0.8 2.2 14.4 7.0 35.4 2.1 0.1 0.1 0.9 0.5 0.2 0.2 0.2 0.0 0.0 0.0 0.0 0.0 0.0 0.0 0.0 0.0 0.0 0.0 0.0 0.1 0.2 0.5 0.1 0.0 0.0 0.0 0.0 0.0 0.0 0.0 0.6 0.8 1.3 0.1 0.1 0.1 0.5
0.0 0.1 14.2 24.7 13.5 0.6 0.3 0.1 0.5 0.1 0.3 0.1 0.1 0.0 0.0 0.0 0.0 0.0 0.0 0.0 0.0 0.0 0.0 0.1 0.0 0.0 0.0 0.0 0.0 0.0 0.1 0.1 0.1 0.1 0.1 0.1 0.1 0.2 0.1 0.1 0.1 0.1 0.1 0.1
0.0 0.0 0.7 22.5 18.5 19.0 0.1 0.0 0.0 0.0 0.8 0.0 0.0 0.0 0.0 0.0 0.1 0.0 0.0 0.0 0.0 0.0 0.0 0.0 0.0 0.0 0.0 0.0 0.0 0.0 0.0 0.0 0.2 0.2 0.1 0.1 0.1 0.1 0.1 0.1 0.2 0.2 0.1 0.2
10.0 14.1 24.4 19.2 15.9 4.1 0.0 0.0 0.0 1.9 0.1 0.0 0.0 0.0 0.0 0.0 0.0 0.0 0.0 0.0 0.0 0.0 0.0 0.0 0.0 0.0 0.1 0.2 0.2 0.2 0.2 0.1 0.2 0.3 0.3 0.3 0.1 0.2 0.1 0.1 0.1 0.2 0.2 0.2
4.1 13.3 23.9 15.0 18.5 24.4 0.0 0.0 0.0 0.0 0.0 0.0 0.0 0.0 0.0 0.0 0.0 0.0 0.0 0.0 0.0 0.0 0.1 0.1 0.0 0.1 0.1 0.2 0.1 0.2 0.1 0.3 0.7 1.0 1.1 1.1 1.1 0.4 0.3 1.0 0.7 1.3 0.8 1.2
5.4 0.5 3.2 0.4 1.8 0.0 0.0 0.0 0.0 0.0 0.0 0.0 0.0 0.0 0.0 0.0 0.0 0.0 0.0 0.0 0.0 0.0 0.1 0.1 0.3 0.8 0.8 1.8 1.2 1.5 1.4 1.6 2.5 3.1 3.9 3.1 2.7 1.9 1.5 1.7 1.6 2.4 1.6 2.3
0.2 0.2 2.4 2.2 0.2 0.0 0.0 0.0 0.0 0.0 0.0 0.0 0.0 0.0 0.0 0.0 0.0 0.0 0.0 0.0 0.0 0.2 0.5 0.8 1.4 2.2 2.6 2.4 2.7 2.2 2.2 2.7 5.1 4.9 3.5 2.5 2.7 1.9 2.0 1.9 1.8 2.5 2.7 2.5
0.7 0.5 2.4 1.6 0.2 0.2 0.0 0.0 0.0 0.0 0.0 0.0 0.0 0.0 0.0 0.0 0.0 0.0 0.0 0.1 0.1 0.4 1.5 2.4 3.7 4.0 3.6 3.6 4.1 4.8 4.1 3.5 3.9 4.8 3.6 2.9 2.9 2.7 2.2 1.9 2.2 2.4 1.2 2.4
0.7 0.8 1.2 0.8 0.1 0.1 0.0 0.1 0.0 0.0 0.0 0.0 0.0 0.1 0.1 0.1 0.1 0.3 0.3 0.2 0.4 1.0 1.6 2.8 3.0 3.1 3.2 4.1 4.5 5.9 6.7 5.0 5.0 3.3 4.1 2.8 2.9 2.5 2.5 3.0 3.3 nan nan nan
Water_Equivalent
0.00 0.00 0.00 0.00 0.00 0.00 0.00 0.00 0.00 0.00 0.00 0.00 0.00 0.00 0.00 0.00 0.00 0.00 0.00 0.00 0.00 0.00 0.00 0.00 0.00 0.00 0.00 0.00 0.00 0.00 0.00 0.00 0.00 0.00 0.00 0.00 0.00 0.00 0.00 0.00 0.00 0.00 0.00 0.00
0.02 0.00 0.00 0.00 0.00 0.00 0.00 0.00 0.01 0.00 0.00 0.00 0.00 0.00 0.00 0.00 0.00 0.00 0.00 0.00 0.00 0.00 0.00 0.00 0.00 0.00 0.00 0.00 0.00 0.00 0.00 0.00 0.00 0.00 0.00 0.00 0.00 0.00 0.00 0.00 0.00 0.00 0.00 0.00
0.03 0.00 0.00 0.00 0.00 0.00 0.00 0.00 0.00 0.00 0.00 0.00 0.00 0.00 0.00 0.00 0.00 0.00 0.00 0.00 0.00 0.00 0.00 0.00 0.00 0.00 0.00 0.00 0.00 0.00 0.00 0.00 0.00 0.00 0.00 0.00 0.00 0.00 0.00 0.00 0.00 0.00 0.00 0.00
0.01 0.00 0.00 0.00 0.00 0.00 0.00 0.00 0.00 0.00 0.07 0.07 0.00 0.09 0.00 0.00 0.00 0.00 0.00 0.00 0.00 0.00 0.00 0.00 0.00 0.00 0.00 0.00 0.00 0.00 0.00 0.00 0.00 0.00 0.00 0.00 0.00 0.00 0.00 0.00 0.00 0.00 0.00 0.00
0.01 0.00 0.00 0.00 0.00 0.00 0.00 0.00 0.00 0.00 0.03 0.01 0.00 0.05 0.00 0.00 0.00 0.00 0.00 0.00 0.00 0.00 0.00 0.00 0.00 0.00 0.00 0.00 0.00 0.00 0.00 0.00 0.00 0.00 0.00 0.00 0.00 0.00 0.00 0.00 0.00 0.00 0.00 0.00
0.00 0.00 0.00 0.00 0.00 0.00 0.00 0.00 0.00 0.00 0.01 0.98 0.00 0.00 0.00 0.00 0.00 0.00 0.00 0.00 0.00 0.00 0.00 0.00 0.00 0.00 0.00 0.00 0.00 0.00 0.00 0.00 0.00 0.00 0.00 0.00 0.00 0.00 0.00 0.00 0.00 0.00 0.00 0.00
0.01 0.00 0.00 0.00 0.00 0.00 0.00 0.06 2.35 2.96 3.73 1.00 0.00 0.01 0.00 0.00 0.00 0.00 0.00 0.00 0.00 0.00 0.00 0.00 0.00 0.00 0.00 0.00 0.00 0.00 0.00 0.00 0.00 0.00 0.00 0.00 0.00 0.00 0.00 0.00 0.00 0.00 0.00 0.00
0.89 1.70 0.01 0.00 0.00 0.04 0.01 0.06 0.96 0.72 0.79 0.22 0.00 0.04 0.00 0.00 0.00 0.00 0.00 0.00 0.00 0.00 0.00 0.00 0.00 0.00 0.00 0.00 0.00 0.00 0.00 0.00 0.00 0.00 0.00 0.00 0.00 0.00 0.00 0.00 0.00 0.00 0.00 0.00
0.83 0.41 0.00 0.00 0.00 0.00 0.11 0.61 0.00 0.45 0.40 0.37 0.04 0.00 0.00 0.00 0.00 0.00 0.00 0.00 0.00 0.00 0.00 0.00 0.00 0.00 0.00 0.00 0.00 0.00 0.00 0.00 0.00 0.00 0.00 0.00 0.00 0.00 0.00 0.00 0.00 0.00 0.00 0.00
0.53 0.96 0.19 0.01 0.01 0.00 0.01 0.00 0.68 0.76 1.66 0.54 0.22 0.01 0.05 0.00 0.00 0.00 0.00 0.00 0.00 0.00 0.00 0.00 0.00 0.00 0.00 0.00 0.00 0.00 0.00 0.00 0.00 0.00 0.00 0.00 0.00 0.00 0.00 0.00 0.00 0.00 0.00 0.00
0.37 0.48 0.52 0.06 0.36 0.09 0.08 0.31 0.00 0.07 0.35 0.74 0.82 0.12 0.01 0.01 0.00 0.00 0.00 0.00 0.00 0.00 0.00 0.00 0.00 0.00 0.00 0.00 0.00 0.00 0.00 0.00 0.00 0.00 0.00 0.00 0.00 0.00 0.00 0.00 0.00 0.00 0.00 0.00
0.01 0.23 0.78 0.68 0.05 0.00 0.00 0.01 0.01 0.45 0.68 0.28 0.46 0.33 0.01 0.01 0.01 0.00 0.00 0.00 0.00 0.00 0.00 0.00 0.00 0.00 0.00 0.00 0.00 0.00 0.00 0.00 0.00 0.00 0.00 0.00 0.00 0.00 0.00 0.00 0.00 0.00 0.00 0.00
0.01 0.79 1.64 1.42 0.68 0.07 0.14 0.00 0.00 0.03 0.11 0.39 1.45 0.41 0.02 0.01 0.04 0.01 0.02 0.03 0.02 0.00 0.00 0.00 0.00 0.00 0.00 0.00 0.00 0.00 0.00 0.00 0.00 0.00 0.00 0.00 0.00 0.00 0.00 0.00 0.00 0.00 0.00 0.00
nan 0.61 0.64 0.31 0.12 0.07 0.49 0.21 0.02 0.12 1.59 0.26 0.41 0.54 0.18 0.55 0.38 0.10 0.20 0.18 0.16 0.13 0.10 0.04 0.03 0.03 0.02 0.01 0.01 0.00 0.00 0.00 0.00 0.00 0.00 0.00 0.00 0.00 0.00 0.00 0.00 0.00 0.00 0.00
0.00 1.25 0.66 0.42 0.08 0.03 0.11 0.33 0.50 0.64 0.04 0.95 0.30 0.73 0.28 0.30 0.50 0.67 0.20 0.07 0.20 0.85 0.60 0.36 0.43 0.30 0.14 0.08 0.07 0.02 0.00 0.02 0.00 0.00 0.00 0.00 0.00 0.00 0.00 0.00 0.00 0.00 0.00 0.00
0.00 0.72 0.41 0.92 0.39 0.22 0.44 0.15 0.27 0.46 0.41 0.53 0.43 0.50 0.04 0.01 0.04 0.28 0.23 0.15 0.13 0.14 0.63 0.70 0.32 0.34 0.34 0.45 0.10 0.00 0.28 0.02 0.00 0.02 0.00 0.00 0.00 0.00 0.00 0.00 0.00 0.00 0.00 0.00
0.02 0.40 2.40 3.76 0.47 0.72 2.36 0.25 0.17 0.17 0.07 0.08 0.46 0.18 0.03 0.07 0.02 0.05 0.03 0.03 0.08 0.02 0.01 0.05 0.04 0.32 0.26 0.11 0.03 0.04 0.00 0.01 0.00 0.00 0.08 0.05 0.18 0.10 0.04 0.06 0.01 0.03 0.06 0.06
0.05 0.20 0.71 3.60 1.88 6.82 0.44 0.03 0.03 0.18 0.12 0.05 0.04 0.05 0.01 0.01 0.01 0.00 0.00 0.00 0.00 0.01 0.00 0.00 0.00 0.00 0.02 0.03 0.15 0.03 0.00 0.00 0.01 0.00 0.01 0.01 0.01 0.22 0.30 0.53 0.05 0.03 0.04 0.12
0.00 0.03 3.12 5.10 2.91 0.13 0.06 0.03 0.10 0.03 0.05 0.02 0.02 0.01 0.00 0.00 0.00 0.00 0.00 0.00 0.00 0.00 0.01 0.01 0.00 0.00 0.00 0.00 0.01 0.01 0.02 0.03 0.02 0.03 0.02 0.03 0.03 0.04 0.02 0.03 0.02 0.02 0.02 0.02
0.00 0.00 0.21 5.01 4.56 3.16 0.03 0.00 0.00 0.00 0.18 0.00 0.00 0.00 0.00 0.00 0.03 0.00 0.00 0.00 0.00 0.00 0.00 0.00 0.00 0.00 0.00 0.00 0.00 0.00 0.01 0.01 0.04 0.04 0.03 0.02 0.02 0.03 0.03 0.03 0.05 0.05 0.04 0.04
2.60 3.76 5.66 4.35 3.75 1.06 0.00 0.00 0.00 0.43 0.03 0.01 0.00 0.00 0.00 0.00 0.00 0.00 0.00 0.00 0.00 0.00 0.00 0.00 0.01 0.00 0.02 0.04 0.05 0.04 0.05 0.03 0.05 0.08 0.07 0.07 0.04 0.06 0.02 0.04 0.04 0.06 0.08 0.06
0.77 2.73 5.09 3.19 3.94 4.20 0.00 0.00 0.00 0.00 0.00 0.00 0.00 0.00 0.00 0.00 0.00 0.00 0.00 0.00 0.00 0.00 0.01 0.01 0.01 0.02 0.02 0.04 0.03 0.04 0.03 0.06 0.13 0.17 0.20 0.23 0.28 0.13 0.08 0.33 0.20 0.41 0.25 0.35
1.08 0.13 0.90 0.11 0.51 0.00 0.00 0.00 0.00 0.00 0.00 0.00 0.00 0.00 0.00 0.00 0.00 0.00 0.00 0.00 0.00 0.00 0.01 0.03 0.05 0.13 0.12 0.26 0.19 0.22 0.21 0.23 0.33 0.51 0.73 0.67 0.59 0.50 0.44 0.57 0.44 0.70 0.49 0.68
0.04 0.05 0.70 0.57 0.07 0.00 0.00 0.00 0.00 0.00 0.00 0.00 0.00 0.00 0.00 0.00 0.00 0.00 0.00 0.00 0.00 0.04 0.08 0.13 0.20 0.28 0.30 0.27 0.30 0.30 0.28 0.32 0.97 0.94 0.54 0.42 0.53 0.41 0.45 0.55 0.57 0.83 0.79 0.70
0.18 0.14 0.48 0.38 0.05 0.06 0.01 0.00 0.00 0.00 0.00 0.00 0.00 0.00 0.00 0.00 0.00 0.00 0.02 0.03 0.02 0.06 0.18 0.29 0.41 0.42 0.39 0.36 0.37 0.49 0.42 0.45 0.58 0.69 0.40 0.45 0.60 0.61 0.39 0.35 0.59 0.60 0.29 0.71
0.14 0.14 0.29 0.25 0.03 0.02 0.01 0.02 0.01 0.01 0.00 0.00 0.01 0.02 0.03 0.03 0.02 0.05 0.06 0.04 0.06 0.14 0.20 0.29 0.31 0.31 0.31 0.39 0.44 0.59 0.75 0.68 0.70 0.41 0.58 0.50 0.52 0.47 0.45 0.53 0.59 nan nan nan
SL_Ratio
nan nan nan nan nan nan nan nan nan nan nan nan nan nan nan nan nan nan nan nan nan nan nan nan nan nan nan nan nan nan nan nan nan nan nan nan nan nan nan nan nan nan nan nan
2.9 nan nan nan nan nan nan 0.0 3.5 nan nan nan nan nan nan nan nan nan nan nan nan nan nan nan nan nan nan nan nan nan nan nan nan nan nan nan nan nan nan nan nan nan nan nan
3.0 nan nan nan nan nan nan 3.3 nan nan nan nan nan nan nan nan nan nan nan nan nan nan nan nan nan nan nan nan nan nan nan nan nan nan nan nan nan nan nan nan nan nan nan nan
3.3 nan nan nan nan nan nan nan nan nan 3.3 4.1 nan 4.2 nan nan nan nan nan nan nan nan nan nan nan nan nan nan nan nan nan nan nan nan nan nan nan nan nan nan nan nan nan nan
3.2 nan nan nan nan nan 5.0 nan nan nan 3.4 4.3 nan 4.4 nan nan nan nan nan nan nan nan nan nan nan nan nan nan nan nan nan nan nan nan nan nan nan nan nan nan nan nan nan nan
nan nan nan nan nan nan nan nan nan nan 3.4 4.4 3.8 2.5 nan nan nan nan nan nan nan nan nan nan nan nan nan nan nan nan nan nan nan nan nan nan nan nan nan nan nan nan nan nan
2.7 1.7 nan nan 4.3 nan 5.0 4.0 4.5 4.7 4.7 4.7 nan 3.9 nan nan nan nan nan nan nan nan nan nan nan nan nan nan nan nan nan nan nan nan nan nan nan nan nan nan nan nan nan nan
4.0 4.2 3.1 nan 3.8 3.4 3.5 3.7 4.5 6.0 5.7 4.4 nan 4.0 nan nan nan nan nan nan nan nan nan nan nan nan nan nan nan nan nan nan nan nan nan nan nan nan nan nan nan nan nan nan
4.4 4.3 3.3 nan nan nan 4.1 4.5 nan 5.1 4.8 4.4 2.9 nan nan nan nan nan nan nan nan nan nan nan nan nan nan nan nan nan nan nan nan nan nan nan nan nan nan nan nan nan nan nan
3.6 5.2 3.2 3.2 3.4 3.0 3.5 nan 4.2 3.9 5.6 5.4 3.1 4.8 4.5 3.8 nan nan nan nan nan nan nan nan nan nan nan nan nan nan nan nan nan nan nan nan nan nan nan nan nan nan nan nan
2.5 4.8 4.2 3.4 3.2 3.0 3.3 3.6 3.6 3.0 3.3 5.3 5.2 5.6 3.9 3.5 nan nan nan nan nan nan nan nan nan nan nan nan nan nan nan nan nan nan nan nan nan nan nan nan nan nan nan nan
2.6 4.1 4.8 4.4 3.1 nan nan 4.4 4.3 4.5 4.6 4.3 4.9 6.9 3.2 3.2 3.5 4.2 nan nan nan nan nan nan nan nan nan nan nan nan nan nan nan nan nan nan nan nan nan nan nan nan nan nan
3.1 3.8 4.5 4.3 4.4 3.2 3.3 nan 5.0 4.5 4.4 6.5 5.8 5.8 3.0 3.5 3.5 3.3 3.5 3.3 3.3 nan 2.5 5.0 nan nan nan nan nan nan nan nan nan nan nan nan nan nan nan nan nan nan nan nan
nan 4.2 5.1 5.0 4.8 3.6 4.6 4.1 3.4 4.9 4.7 4.6 5.0 5.1 4.6 4.2 4.6 3.8 3.6 3.2 3.1 3.3 3.2 3.1 3.2 3.2 3.0 3.0 2.7 nan nan nan nan nan nan nan nan nan nan nan nan nan nan nan
5.0 4.5 4.7 4.7 4.1 4.2 4.5 4.9 4.9 5.4 3.8 5.0 5.2 5.0 4.8 4.2 4.4 3.8 3.7 3.5 3.3 2.8 3.0 3.3 3.2 3.3 3.6 3.2 3.2 2.5 nan 2.7 nan nan nan nan nan nan nan nan nan nan nan nan
nan 3.6 5.2 5.3 5.0 4.3 6.0 4.8 4.6 5.3 4.5 5.0 5.2 5.9 3.5 3.2 3.6 4.1 4.2 3.6 3.6 3.7 2.9 2.9 3.4 3.2 3.8 3.7 3.5 2.5 2.5 2.4 nan 2.7 nan nan nan nan nan nan nan nan nan nan
3.7 3.9 3.3 3.9 5.8 5.9 4.7 6.2 5.1 4.6 3.9 3.8 5.2 4.6 3.5 3.5 3.3 4.1 4.1 4.0 4.5 4.1 3.9 4.4 4.3 3.0 4.2 3.7 2.9 4.3 2.5 3.7 nan nan 2.5 2.5 2.5 2.5 2.6 2.5 2.3 2.5 2.5 2.5
3.7 4.2 3.1 4.0 3.7 5.2 4.6 3.7 3.9 4.7 4.0 3.7 3.8 3.8 3.3 3.2 3.2 nan nan nan 3.3 3.8 nan nan nan 0.0 4.8 4.6 3.4 2.5 nan nan 2.7 nan 2.2 2.4 2.4 2.5 2.5 2.5 2.9 3.2 2.9 3.7
nan 2.9 4.6 4.8 4.7 5.0 4.8 4.1 4.8 4.8 5.0 3.6 3.7 3.1 nan nan nan nan nan nan nan nan 3.6 4.1 nan nan nan 5.0 5.0 4.2 3.9 3.4 3.4 3.0 2.7 2.9 3.1 3.7 3.0 3.1 3.0 3.3 2.7 2.8
nan 0.0 3.3 4.5 4.1 6.0 4.5 nan nan 5.0 4.4 3.3 nan nan nan nan 4.1 nan nan nan nan nan nan nan nan nan nan nan nan 3.3 3.1 3.4 4.8 4.4 4.1 3.9 3.1 3.3 3.7 3.7 4.0 3.6 3.5 3.5
3.9 3.8 4.3 4.4 4.2 3.9 nan nan nan 4.5 3.9 2.5 nan nan nan nan nan nan nan nan nan nan nan 3.3 3.2 2.5 3.4 3.8 3.6 3.8 3.8 4.2 4.1 4.3 4.3 3.9 3.5 3.2 3.0 3.0 3.2 3.1 3.0 3.3
5.3 4.9 4.7 4.7 4.7 5.8 nan nan nan 0.0 nan nan nan nan nan nan nan nan nan nan nan 3.3 4.1 4.1 3.4 4.4 4.6 5.1 4.2 4.3 4.4 4.9 5.3 5.7 5.5 4.9 3.8 3.3 3.2 2.9 3.4 3.2 3.1 3.4
5.0 3.9 3.6 3.9 3.4 nan nan nan nan nan nan nan nan nan nan nan nan nan nan nan nan 5.0 4.7 5.0 5.1 6.0 7.0 6.9 6.5 7.1 6.8 7.0 7.7 6.0 5.3 4.6 4.6 3.9 3.4 2.9 3.7 3.4 3.2 3.3
3.7 3.3 3.5 3.9 3.1 3.0 nan nan nan nan nan nan nan nan nan nan nan nan nan nan nan 5.4 6.0 6.5 7.0 8.0 8.6 8.8 9.1 7.2 8.0 8.2 5.3 5.2 6.4 6.0 5.2 4.7 4.4 3.4 3.1 3.0 3.4 3.6
3.7 3.8 4.9 4.3 4.0 3.9 2.9 nan nan nan nan nan nan nan nan nan nan nan 2.9 3.6 4.6 6.1 8.3 8.4 9.1 9.4 9.0 10.0 11.1 9.8 9.9 7.8 6.8 6.9 9.1 6.4 4.9 4.5 5.6 5.6 3.7 4.0 4.0 3.3
5.2 5.9 4.3 3.4 3.2 3.1 2.7 3.2 3.6 3.6 5.0 nan 3.0 4.3 4.3 4.2 3.9 5.2 5.7 5.6 6.2 7.1 8.0 9.8 9.5 10.1 10.2 10.4 10.3 10.0 8.8 7.3 7.2 7.9 7.0 5.5 5.6 5.4 5.5 5.7 5.5 nan nan nan